Preview of NWS' New Version of Forecast
This preview is not operational and should not be used for support decisions.

Regional Weather Roundup (RWR)

Issued by National Weather Service (NWS)

                            
000
ASUS43 KLSX 211157
RWRMO 

WEATHER SUMMARY FOR MISSOURI
NATIONAL WEATHER SERVICE SPRINGFIELD MO
600 AM CST THU FEB 21 2019

NOTE: "FAIR" INDICATES FEW OR NO CLOUDS BELOW 12,000 FEET WITH NO
       SIGNIFICANT WEATHER AND/OR OBSTRUCTIONS TO VISIBILITY.
       CURRENT SKY AND/OR WEATHER CONDITIONS ARE NOT AVAILABLE FOR
       CHILLICOTHE AND FARMINGTON.

MOZ001>031-035>038-043-044-053-054-211300-
...NORTHERN AND WESTERN MISSOURI...
  
CITY           SKY/WX    TMP DP  RH WIND       PRES   REMARKS
KANSAS CTY INT MOCLDY    21  20  96 CALM      30.11R FOG              
6HR MIN TEMP:  19; 6HR MAX TEMP:  26;                                

LEE'S SUMMIT   CLOUDY    23  23 100 CALM      30.11R FOG              
6HR MIN TEMP:  23; 6HR MAX TEMP:  28;                                

ST JOSEPH      FOG        7   7 100 CALM      30.13R VSB 1/4          
6HR MIN TEMP:   4; 6HR MAX TEMP:  22;                                

CHILLICOTHE      N/A     17  15  92 CALM      30.13S                  
6HR MIN TEMP:  16; 6HR MAX TEMP:  29;                                

     
$$
MOZ066>068-077>081-088>096-101>105-211300-
...SOUTHWEST MISSOURI...
  
CITY           SKY/WX    TMP DP  RH WIND       PRES   REMARKS
SPRINGFIELD    CLEAR     28  25  88 SE6       30.12R FOG     WCI  22  
6HR MIN TEMP:  26; 6HR MAX TEMP:  34;                                

JOPLIN         PTCLDY    31  29  92 SE6       30.13R FOG     WCI  25  
6HR MIN TEMP:  27; 6HR MAX TEMP:  32;                                

               
$$
MOZ032>034-039>042-045>050-055>058-069>072-211300-
...CENTRAL MISSOURI...  
  
CITY           SKY/WX    TMP DP  RH WIND       PRES   REMARKS
COLUMBIA       NOT AVBL                                               
JEFFERSON CITY CLOUDY    30  26  85 W3        30.14R                  
6HR MIN TEMP:  29; 6HR MAX TEMP:  35;                                

ROLLA          CLEAR     24  21  88 S5        30.15R WCI  18          
6HR MIN TEMP:  24; 6HR MAX TEMP:  33;                                

SEDALIA        PTCLDY    27  26  96 S3        30.14R FOG              
6HR MIN TEMP:  27; 6HR MAX TEMP:  31;                                

WARRENSBURG    PTCLDY    25  23  93 CALM      30.13R FOG              
               
$$
MOZ051-052-059>065-211300-
...EAST CENTRAL MISSOURI...
  
CITY           SKY/WX    TMP DP  RH WIND       PRES   REMARKS
ST LOUIS INTL  PTCLDY    28  25  88 CALM      30.16R                  
6HR MIN TEMP:  27; 6HR MAX TEMP:  35;                                

                   
$$
MOZ072>076-082>087-097>100-106>115-211300-
...SOUTH CENTRAL AND SOUTHEAST MISSOURI...
  
CITY           SKY/WX    TMP DP  RH WIND       PRES   REMARKS
CAPE GIRARDEAU FAIR      32  29  88 CALM      30.16R                  
6HR MIN TEMP:  31; 6HR MAX TEMP:  37;                                

POPLAR BLUFF   FAIR      32  31  96 CALM      30.17R                  
6HR MIN TEMP:  31; 6HR MAX TEMP:  38;                                

WEST PLAINS    PTCLDY    31  27  85 N3        30.15R                  
6HR MIN TEMP:  27; 6HR MAX TEMP:  33;                                

                                       
$$